Rayong, Thailand

6:18 PM ICT on February 13, 2016 (GMT +0700)
Nhong Yai In | | Change Station
CLOSE
Current Station
Personal Weather Station
Location: Phe, Rayong
Elevation: 26 ft
Nearby Weather Stations

Elev 26 ft 12.62 °N, 101.40 °E | Updated 10 seconds ago

Partly Cloudy
Partly Cloudy
82.1 °F
Feels Like 87 °F
N
1.0
Wind Variable Wind from SW
Gusts 4.0 mph

Today
High -- | Low -- °F
--% Chance of Precip.
Yesterday
High -- | Low -- °F
Precip. -- in
Pressure 29.83 in
Visibility 2.5 miles
Clouds Few 2000 ft
Heat Index 87 °F
Dew Point 72 °F
Humidity 72%
Rainfall 0.00 in
Snow Depth Not available.
6:37 AM 6:20 PM
Waxing Crescent, 29% visible
METAR VTBU 131100Z 19008KT 4000 BR FEW020 28/22 Q1010 A2983 NOSIG
Pressure 29.83 in
Visibility 2.5 miles
Clouds Few 2000 ft
Heat Index 87 °F
Dew Point 72 °F
Humidity 72%
Rainfall 0.00 in
Snow Depth Not available.
6:37 AM 6:20 PM
Waxing Crescent, 29% visible
METAR VTBU 131100Z 19008KT 4000 BR FEW020 28/22 Q1010 A2983 NOSIG

10-Day Weather Forecast

No radar image for this location.
×

Almanac

Astronomy

Feb. 13, 2016 Rise Set
Actual Time
Civil Twilight
Nautical Twilight
Astronomical Twilight
Moon
Length of Visible Light
Length of Day
Tomorrow will be .
, % of the Moon is Illuminated

Today's Extremes

Country Highs Country Lows

Community

WunderPhotos

Upload Photos

1,892,541 photos uploaded!

WunderBlog® & News

Nearby

Air Quality

  Air Quality AQ Index Pollutant
Not available.

Snow Depth

Station Depth Elevation

Earthquake Activity

City Distance Mag. Time & Date
Minimum magnitude displayed is 2.5.

Coastal Water Temperatures

Place Temperature

Stations

Nearby Weather Stations

Station Location Temp. Windchill Dew Point Humidity Wind Precip. Elev Updated Type